Home   Weather   Queens   Past weeks
Flag for USA

Past Weather in Queens, New York, USA — Yesterday and Last 2 Weeks

Now
61 °F

Cool.


Feels Like: 61 °F
Forecast: 64 / 53 °F
Wind: No wind

Location: MADIS Weather Station F1075 (APRSWXNET)

Current Time: Oct 22, 2019 at 11:25:26 pm

Latest Report: Oct 22, 2019 at 10:41 pm


Visibility: N/A

Pressure: 29.69 "Hg

Humidity: 99%

Dew Point: 61 °F

Location of QueensLocation

Past Weather in Queens — Graph

°F

Queens Temperature Yesterday

Maximum temperature yesterday: 69 °F (at 3:41 pm)
Minimum temperature yesterday: 51 °F (at 6:11 am)
Average temperature yesterday: 57 °F

High & Low Weather Summary for the Past Weeks

 TemperatureHumidityPressure
High74 °F (Oct 14, 3:11 pm)99% (Oct 9, 11:01 am)30.14 "Hg (Oct 9, 11:01 am)
Low38 °F (Oct 19, 6:11 am)39% (Oct 10, 7:11 pm)28.99 "Hg (Oct 16, 9:51 pm)
Average57 °F78%29.87 "Hg
* Reported Oct 7 10:11 pm — Oct 22 10:31 pm, Queens. Weather by CustomWeather, © 2019

Note: Actual official high and low records may vary slightly from our data, if they occured in-between our weather recording intervals... More about our weather records

Advertising

Queens Weather History for the Previous 24 Hours

Scroll right to see more
 ConditionsComfort  
Time TempWeatherWind HumidityBarometerVisibility
10:31 pm
Tue, Oct 22
60 °FCool.1 mph99%29.70 "HgN/A
9:41 pm59 °FCool.No wind99%29.71 "HgN/A
9:11 pm59 °FCool.1 mph99%29.72 "HgN/A
8:31 pm59 °FCool.No wind99%29.75 "HgN/A
8:01 pm59 °FCool.No wind99%29.77 "HgN/A
7:11 pm59 °FCool.No wind99%29.75 "HgN/A
6:41 pm59 °FCool.1 mph99%29.75 "HgN/A
6:11 pm59 °FCool.1 mph99%29.76 "HgN/A
5:01 pm59 °FCool.1 mph99%29.77 "HgN/A
4:41 pm59 °FCool.No wind99%29.77 "HgN/A
4:31 pm59 °FCool.2 mph99%29.78 "HgN/A
4:11 pm59 °FCool.2 mph99%29.77 "HgN/A
3:41 pm60 °FCool.1 mph98%29.78 "HgN/A
3:31 pm60 °FCool.1 mph98%29.79 "HgN/A
3:11 pm61 °FCool.1 mph97%29.79 "HgN/A
1:51 pm60 °FCool.1 mph98%29.84 "HgN/A
1:41 pm60 °FCool.No wind99%29.85 "HgN/A
1:31 pm60 °FCool.No wind99%29.86 "HgN/A
1:11 pm59 °FCool.No wind99%29.87 "HgN/A
12:41 pm59 °FCool.No wind98%29.89 "HgN/A
12:31 pm59 °FCool.No wind98%29.91 "HgN/A
12:01 pm58 °FCool.No wind98%29.92 "HgN/A
11:41 am58 °FCool.No wind97%29.92 "HgN/A
11:31 am58 °FCool.No wind97%29.93 "HgN/A
11:01 am57 °FCool.No wind95%29.93 "HgN/A
10:31 am58 °FCool.No wind93%29.95 "HgN/A
10:01 am58 °FCool.No wind92%29.94 "HgN/A
9:41 am58 °FCool.No wind92%29.95 "HgN/A
9:31 am58 °FCool.No wind92%29.94 "HgN/A
9:11 am57 °FCool.No wind92%29.92 "HgN/A
8:21 am56 °FCool.No wind91%29.95 "HgN/A
7:41 am55 °FCool.No wind89%29.95 "HgN/A
7:11 am55 °FCool.No wind87%29.94 "HgN/A
6:41 am55 °FCool.No wind85%29.93 "HgN/A
6:01 am55 °FCool.No wind82%29.93 "HgN/A
5:31 am54 °FCool.No wind80%29.95 "HgN/A
4:31 am54 °FCool.No wind77%29.96 "HgN/A
4:01 am54 °FCool.No wind77%29.93 "HgN/A
3:41 am54 °FCool.No wind77%29.93 "HgN/A
2:21 am52 °FCool.No wind90%29.97 "HgN/A
1:51 am51 °FCool.No wind94%29.97 "HgN/A
1:41 am51 °FCool.No wind94%29.97 "HgN/A
1:21 am51 °FCool.No wind94%29.98 "HgN/A
1:11 am51 °FCool.No wind94%29.98 "HgN/A
12:41 am51 °FCool.No wind94%29.98 "HgN/A
12:31 am51 °FCool.No wind94%29.98 "HgN/A
12:01 am51 °FCool.No wind95%30.00 "HgN/A
11:31 pm
Mon, Oct 21
51 °FCool.No wind95%29.99 "HgN/A
11:21 pm51 °FCool.No wind95%30.00 "HgN/A
Weather by CustomWeather, © 2019

See weather overview